Погода в Муратпаше

Турция     36°53′48″N   30°42′16″E
темп.,
°C
ветер,
м/с
пор.,
м/с
влажн.,
%
обл.,
%
осадки,
мм/ч
давл.,
гПа
погр.,
м
22 апреля, чт
чт2200:00+14сз22671 0.0 101869
03:00+14сз22580 0.0 101723
06:00+13сз33395 0.0 101850
09:00+19ссз35330 0.0 1019541
12:00+24зюз33240 0.0 10191639
15:00+24ю54325 0.0 10181165
18:00+22юв33385 0.0 1018595
21:00+17ссв11565 0.0 101954
23 апреля, пт
пт2300:00+16с11535 0.0 101919
03:00+14ссз11415 0.0 101918
06:00+14ссз22325 0.0 101920
09:00+20с112452 0.0 1020261
12:00+24ююв2224100 0.0 1019902
15:00+25ююв53299 0.0 10181011
18:00+22ю323648 0.0 1017535
21:00+18с11480 0.0 101859
24 апреля, сб
сб2400:00+17сз11490 0.0 101716
03:00+17сз224411 0.0 101513
06:00+17сз223910 0.0 101422
09:00+23сз1330100 0.0 1014308
12:00+28ю2122100 0.0 1013914
15:00+27ююв4424100 0.0 1012778
18:00+25ююв333036 0.0 1011474
21:00+20св11475 0.0 101229
25 апреля, вс
вс2500:00+19сз1145100 0.0 101117
03:00+19ссз2236100 0.0 101018
06:00+20ссз2232100 0.0 100824
09:00+23с1231100 0.0 100990
12:00+26ююв232295 0.0 1008632
15:00+27ююв562299 0.0 10071048
18:00+23ююв343281 0.0 1006648
21:00+19ссв11490 0.0 100666
26 апреля, пн
пн2600:00+17ссз22480 0.0 100646
03:00+17сз33414 0.0 100545
06:00+16ссз36430 0.0 1005136
09:00+21ссз57450 0.0 1006779
12:00+27сз55270 0.0 10062128
15:00+29сз452222 0.0 10052823
18:00+24всв35380 0.0 1007860
21:00+19с13530 0.0 1009120